{"data":{"norad_id":63749,"epoch":"2026-09-21T20:13:03.225216Z","epoch_age_seconds":88652,"freshness":"FRESH","line1":"1 63749U 25088AB  26264.84239844 -.00001224  00000+0 -13167-3 0  9995","line2":"2 63749  51.9035 324.5624 0000467  43.4189 316.6811 14.79926518 77378","mean_motion":14.79926518,"eccentricity":4.67e-5,"inclination_deg":51.9035,"raan_deg":324.5624,"arg_perigee_deg":43.4189,"mean_anomaly_deg":316.6811,"bstar":-0.00013167,"rev_number":7737,"period_min":97.30212834797,"perigee_km":629.22883205007,"apogee_km":629.8833505848,"semimajor_km":7007.6930913174,"source":"CELESTRAK","updated_at":"2026-09-22T09:00:29.322683Z"}}